Weather History for KDEW - January, 2013

Change the Weather History Date:

Tuesday, January 1, 2013

  Actual Average Record
Temperature  
Mean Temperature 13 °F 25 °F  
Max Temperature 23 °F 31 °F - ()
Min Temperature 3 °F 19 °F - ()
Degree Days  
Heating Degree Days 52 40  
Month to date heating degree days 52 40  
Since 1 July heating degree days 2845 3267  
Cooling Degree Days 0 0  
Month to date cooling degree days 0 0  
Year to date cooling degree days 0 0  
Moisture  
Dew Point 13 °F    
Average Humidity 92    
Maximum Humidity 100    
Minimum Humidity 84    
Precipitation  
Precipitation 0.00 in 0.11 in - ()
Month to date precipitation 0.00 0.11  
Year to date precipitation 0.00 0.11  
Sea Level Pressure  
Sea Level Pressure 30.55 in    
Wind  
Wind Speed 1 mph (NW)    
Max Wind Speed 6 mph    
Max Gust Speed 6 mph    
Visibility 4 miles    
Events Fog    
T = Trace of Precipitation, MM = Missing Value Source: NWS Daily Summary

Daily Weather History Graph

Daily Weather History Graph

Search for Another Location

Airport or City:

Trip Planner

Search our weather history database for the weather conditions in past years. The results will help you decide how hot, cold, wet, or windy it might be!

Date:

Astronomy

Jan. 01, 2013 Rise Set
Actual Time 7:39 AM PST 4:07 PM PST
Civil Twilight 7:03 AM PST 4:43 PM PST
Nautical Twilight 6:23 AM PST 5:23 PM PST
Astronomical Twilight 5:46 AM PST 6:01 PM PST
Moon 9:05 PM PST (1/1) 9:33 AM PST (1/1)
Length of Visible Light 9h 40m
Length of Day
8h 28m
Waning Gibbous, 82% of the Moon is Illuminated
Jan 1
Waning Gibbous
Jan 4
Last Quarter
Jan 11
New
Jan 18
First Quarter
Jan 26
Full

Hourly Weather History & Observations

Time (PST) Temp. Windchill Dew Point Humidity Pressure Visibility Wind Dir Wind Speed Gust Speed Precip Events Conditions
12:29 AM 3.2 °F - 1.4 °F 92% 30.41 in 10.0 mi Calm Calm - N/A   Mostly Cloudy
12:53 AM 3.9 °F - 1.9 °F 91% 30.52 in 10.0 mi Calm Calm - N/A   Scattered Clouds
1:21 AM 6.8 °F -0.1 °F 3.2 °F 85% 30.41 in 1.8 mi NW 3.5 mph - N/A   Scattered Clouds
1:28 AM 6.8 °F -0.1 °F 5.0 °F 92% 30.41 in 1.2 mi NW 3.5 mph - N/A   Mostly Cloudy
1:36 AM 3.2 °F -4.2 °F 1.4 °F 92% 30.41 in 3.0 mi NW 3.5 mph - N/A   Mostly Cloudy
1:43 AM 5.0 °F - 1.4 °F 85% 30.41 in 1.5 mi Calm Calm - N/A   Overcast
1:53 AM 5.0 °F - 1.0 °F 84% 30.53 in 5.0 mi Calm Calm - N/A   Overcast
1:59 AM 6.8 °F - 3.2 °F 85% 30.42 in 1.5 mi Calm Calm - N/A   Overcast
2:08 AM 6.8 °F - 3.2 °F 85% 30.43 in 0.8 mi Calm Calm - N/A   Mist
2:12 AM 5.0 °F - 1.4 °F 85% 30.43 in 2.0 mi Calm Calm - N/A   Overcast
2:17 AM 6.8 °F - 3.2 °F 85% 30.44 in 0.8 mi Calm Calm - N/A   Mist
2:37 AM 6.8 °F - 5.0 °F 92% 30.44 in 2.5 mi Calm Calm - N/A   Overcast
2:44 AM 5.0 °F - 3.2 °F 92% 30.44 in 3.0 mi Calm Calm - N/A   Overcast
2:46 AM 5.0 °F - 3.2 °F 92% 30.44 in 0.8 mi Calm Calm - N/A   Mist
2:53 AM 3.9 °F - 1.0 °F 88% 30.56 in 0.2 mi Calm Calm - N/A Fog Light Freezing Fog
3:53 AM 8.1 °F - 6.1 °F 92% 30.58 in 0.2 mi Calm Calm - N/A Fog Light Freezing Fog
4:53 AM 12.0 °F - 10.0 °F 92% 30.60 in 0.5 mi Calm Calm - N/A Fog Light Freezing Fog
5:28 AM 12.2 °F 6.1 °F 10.4 °F 92% 30.48 in 1.0 mi NW 3.5 mph - N/A   Mist
5:39 AM 12.2 °F 6.1 °F 10.4 °F 92% 30.48 in 3.0 mi NW 3.5 mph - N/A   Overcast
5:53 AM 12.9 °F 6.9 °F 10.9 °F 92% 30.61 in 6.0 mi NW 3.5 mph - N/A   Overcast
6:53 AM 14.0 °F 8.2 °F 12.0 °F 92% 30.61 in 5.0 mi NW 3.5 mph - N/A   Overcast
7:09 AM 14.0 °F - 12.2 °F 93% 30.48 in 1.8 mi Calm Calm - N/A   Overcast
7:39 AM 14.0 °F - 12.2 °F 93% 30.48 in 0.8 mi Calm Calm - N/A   Mist
7:46 AM 14.0 °F - 12.2 °F 93% 30.49 in 2.0 mi Calm Calm - N/A   Overcast
7:53 AM 14.0 °F - 12.9 °F 95% 30.62 in 2.5 mi Calm Calm - N/A   Overcast
8:01 AM 15.8 °F 10.2 °F 12.2 °F 86% 30.50 in 3.0 mi North 3.5 mph - N/A   Overcast
8:29 AM 15.8 °F - 14.0 °F 93% 30.50 in 4.0 mi Calm Calm - N/A   Overcast
8:53 AM 17.1 °F - 14.0 °F 88% 30.64 in 4.0 mi Calm Calm - N/A   Overcast
9:08 AM 17.6 °F - 15.8 °F 93% 30.52 in 5.0 mi Calm Calm - N/A   Overcast
9:18 AM 17.6 °F - 15.8 °F 93% 30.52 in 4.0 mi Calm Calm - N/A   Overcast
9:53 AM 17.1 °F - 16.0 °F 96% 30.66 in 4.0 mi Calm Calm - N/A   Overcast
10:53 AM 19.0 °F - 19.0 °F 100% 30.67 in 4.0 mi Calm Calm - N/A   Overcast
11:53 AM 19.9 °F - 19.0 °F 96% 30.66 in 4.0 mi Calm Calm - N/A   Overcast
12:53 PM 21.0 °F - 19.9 °F 96% 30.66 in 5.0 mi Calm Calm - N/A   Overcast
1:53 PM 21.9 °F 17.2 °F 19.9 °F 92% 30.66 in 5.0 mi SSE 3.5 mph - N/A   Overcast
2:46 PM 21.2 °F - 21.2 °F 100% 30.53 in 5.0 mi Calm Calm - N/A   Overcast
2:53 PM 21.9 °F - 21.0 °F 96% 30.66 in 5.0 mi Calm Calm - N/A   Overcast
2:59 PM 21.2 °F - 21.2 °F 100% 30.53 in 5.0 mi Calm Calm - N/A   Overcast
3:15 PM 23.0 °F - 21.2 °F 93% 30.53 in 5.0 mi Calm Calm - N/A   Overcast
3:26 PM 21.2 °F - 21.2 °F 100% 30.53 in 6.0 mi Calm Calm - N/A   Overcast
3:50 PM 23.0 °F - 21.2 °F 93% 30.54 in 6.0 mi Calm Calm - N/A   Overcast
3:53 PM 21.9 °F - 21.0 °F 96% 30.66 in 6.0 mi Calm Calm - N/A   Overcast
4:53 PM 21.9 °F 17.2 °F 19.9 °F 92% 30.67 in 7.0 mi West 3.5 mph - N/A   Overcast
5:53 PM 21.9 °F - 19.9 °F 92% 30.66 in 5.0 mi Calm Calm - N/A   Overcast
6:53 PM 21.0 °F - 19.0 °F 92% 30.66 in 6.0 mi Calm Calm - N/A   Overcast
7:14 PM 21.2 °F - 19.4 °F 93% 30.55 in 6.0 mi Calm Calm - N/A   Overcast
7:36 PM 21.2 °F - 19.4 °F 93% 30.55 in 6.0 mi Calm Calm - N/A   Overcast
7:53 PM 21.0 °F - 19.0 °F 92% 30.66 in 6.0 mi Calm Calm - N/A   Overcast
8:53 PM 21.0 °F - 19.0 °F 92% 30.66 in 6.0 mi Calm Calm - N/A   Overcast
9:53 PM 21.0 °F - 19.0 °F 92% 30.66 in 7.0 mi Calm Calm - N/A   Overcast
10:53 PM 21.0 °F - 19.0 °F 92% 30.66 in 6.0 mi Calm Calm - N/A   Overcast
11:27 PM 21.2 °F - 19.4 °F 93% 30.56 in 5.0 mi Calm Calm - N/A   Overcast
11:53 PM 21.0 °F - 19.0 °F 92% 30.66 in 6.0 mi Calm Calm - N/A   Overcast